Location: Moy Burn
(57.3833°N, 4.0667°W)
Time: 09:55:37
(UTC+00:00)

Cosmos 2333 Rocket - Pass Details

Date: 08 August 2020
Orbit: 837 x 864 km, 70.8° (Epoch: 18 September)

Event Time Altitude Azimuth Distance (km) Brightness Sun altitude
Rises 22:27:57 0° 320° (NW) 3,457 7.2 -13.1°
Reaches altitude 10° 22:30:31 10° 326° (NW) 2,518 6.1 -13.3°
Maximum altitude 22:36:09 50° 42° (NE) 1,098 2.9 -13.6°
Enters shadow 22:41:23 12° 116° (ESE) 2,375 4.1 -13.9°
